Regional Weather Roundup
Issued by NWS

Home | Current Version | Previous Version | Text Only | Print | Product List | Glossary On
Versions: 1 2 3 4 5 6 7 8 9 10 11 12 13 14 15 16 17 18 19 20 21 22 23 24 25 26 27 28 29 30 31 32 33 34 35 36 37 38 39 40 41 42 43 44 45 46 47 48 49 50
000
ASUS45 KREV 292110
RWRNV
NEVADA REGIONAL WEATHER ROUNDUP
NATIONAL WEATHER SERVICE RENO NV
200 PM PDT WED MAR 29 2017

NOTE: "FAIR" INDICATES FEW OR NO CLOUDS BELOW 12,000 FEET WITH NO
SIGNIFICANT WEATHER AND/OR OBSTRUCTIONS TO VISIBILITY.

NVZ001-003-004-292200-
WESTERN NEVADA

CITY           SKY/WX    TMP DP  RH WIND       PRES   REMARKS
RENO           PTSUNNY   67  30  25 NE3       30.16F
CARSON CITY    FAIR      66  28  24 S5        30.18F
MINDEN         FAIR      64  32  29 CALM      30.17F
FALLON         PTSUNNY   65  23  20 CALM      30.16F
LOVELOCK       SUNNY     63  28  26 VRB5      30.17F
HAWTHORNE      SUNNY     64  21  19 CALM      30.17F
$$

NVZ002-CAZ072-073-292200-
NORTHERN AND CENTRAL SIERRA

CITY           SKY/WX    TMP DP  RH WIND       PRES   REMARKS
S. LAKE TAHOE  SUNNY     56  36  47 NE8       30.23F
TRUCKEE        MOSUNNY   64  30  27 S15       30.22
SQUAW VLY 8000   N/A     46  32  57 W5          N/A
MAMMOTH LAKES  FAIR      64  20  19 S6        30.26F
$$

NVZ030-031-036-292200-
NORTHERN NEVADA

CITY           SKY/WX    TMP DP  RH WIND       PRES   REMARKS
ELKO           PTSUNNY   59  32  36 SW9       30.16F
WINNEMUCCA     MOSUNNY   62  35  36 SE9       30.14F
WENDOVER       SUNNY     55  31  39 E9        30.18F
$$

NVZ035-037-292200-
CENTRAL NEVADA

CITY           SKY/WX    TMP DP  RH WIND       PRES   REMARKS
ELY            SUNNY     58  27  30 VRB5      30.19F
EUREKA           N/A     57  28  33 E6        30.19F
$$

NVZ013-014-292200-
SOUTH CENTRAL NEVADA

CITY           SKY/WX    TMP DP  RH WIND       PRES   REMARKS
TONOPAH        SUNNY     67  23  19 NW10      30.19F
$$

NVZ017-020-022-292200-
SOUTHERN NEVADA

CITY           SKY/WX    TMP DP  RH WIND       PRES   REMARKS
LAS VEGAS      MOSUNNY   72  20  14 NE8       30.08F
N. LAS VEGAS   SUNNY     73  23  15 S6        30.09F
NELLIS AFB     SUNNY     72  26  17 E7        30.08F
HENDERSON      SUNNY     71  25  17 VRB3      30.13F
MERCURY        SUNNY     72  23  16 VRB3      30.11F
$$



USA.gov is the U.S. government's official web portal to all federal, state and local government web resources and services.